User: anonymous   Login
Location: Artiguedieu
(43.5000°N, 0.5454°E)
Time: 11:20:47
(UTC+00:00)
Language:

Vanguard 3 - Orbit

View from above orbital plane
View from above orbital plane
View from above satellite
View from above satellite

Ground track
Ground track

The orbit data is extracted from the following two-line orbital elements,

1 00020U 59007A   21214.86571154  .00000058  00000-0  10877-4 0  9990
2 00020  33.3533 156.2319 1665967 289.3334  53.4942 11.55808787278210
Epoch (UTC): 02 August 2021 20:46:37
Eccentricity: 0.1665967
inclination: 33.3533°
perigee height: 508 km
apogee height: 3261 km
right ascension of ascending node: 156.2319°
argument of perigee: 289.3334°
revolutions per day: 11.55808787
mean anomaly at epoch: 53.4942°
orbit number at epoch: 27821

The dashed part of the orbit path shows where the satellite is in the earth's shadow,  

DLR